QPF
0.00 0.00 0.00 0.00 0.00 0.00 0.01 0.01 0.01 0.00 0.01 0.01 0.01 0.01 0.02 0.02 0.02 0.01 0.01 0.01 0.01 0.01 0.01 0.02 0.02 0.02 0.02 0.03 0.03 0.04 0.06 0.07 0.07 0.05 0.04 0.04 0.04 0.05 0.05 0.04 0.04 0.04 0.04 0.04
0.00 0.00 0.00 0.01 0.01 0.01 0.01 0.01 0.01 0.01 0.01 0.01 0.01 0.01 0.01 0.01 0.01 0.01 0.01 0.01 0.01 0.01 0.01 0.02 0.02 0.02 0.02 0.02 0.02 0.02 0.03 0.06 0.06 0.06 0.05 0.04 0.04 0.04 0.05 0.06 0.04 0.04 0.04 0.04
0.01 0.00 0.01 0.01 0.01 0.01 0.01 0.01 0.01 0.02 0.01 0.01 0.01 0.01 0.01 0.01 0.01 0.01 0.01 0.01 0.01 0.01 0.01 0.02 0.02 0.02 0.03 0.02 0.02 0.02 0.02 0.03 0.05 0.05 0.06 0.05 0.05 0.04 0.04 0.05 0.06 0.04 0.03 0.03
0.02 0.01 0.01 0.01 0.01 0.01 0.01 0.01 0.02 0.02 0.01 0.01 0.01 0.01 0.01 0.01 0.02 0.01 0.01 0.01 0.01 0.01 0.02 0.02 0.02 0.02 0.02 0.02 0.02 0.02 0.02 0.03 0.03 0.04 0.05 0.06 0.05 0.05 0.05 0.05 0.05 0.05 0.04 0.03
0.02 0.01 0.01 0.01 0.01 0.02 0.02 0.02 0.02 0.02 0.01 0.01 0.01 0.01 0.01 0.01 0.01 0.02 0.02 0.02 0.02 0.02 0.02 0.03 0.02 0.02 0.02 0.02 0.02 0.02 0.02 0.02 0.02 0.02 0.03 0.04 0.05 0.05 0.06 0.06 0.05 0.06 0.05 0.04
0.02 0.02 0.02 0.02 0.01 0.01 0.01 0.02 0.02 0.02 0.02 0.01 0.01 0.02 0.01 0.01 0.01 0.02 0.02 0.02 0.02 0.02 0.02 0.02 0.02 0.02 0.02 0.02 0.02 0.02 0.02 0.01 0.01 0.01 0.02 0.03 0.03 0.04 0.05 0.06 0.06 0.05 0.06 0.05
0.02 0.02 0.02 0.02 0.01 0.01 0.02 0.02 0.02 0.02 0.02 0.02 0.02 0.02 0.02 0.01 0.01 0.01 0.01 0.01 0.01 0.02 0.02 0.02 0.03 0.03 0.03 0.02 0.02 0.01 0.01 0.01 0.01 0.01 0.02 0.02 0.02 0.03 0.04 0.05 0.05 0.06 0.06 0.06
0.02 0.03 0.02 0.01 0.01 0.02 0.02 0.02 0.01 0.01 0.01 0.01 0.01 0.01 0.01 0.01 0.01 0.01 0.01 0.01 0.02 0.02 0.03 0.03 0.03 0.04 0.03 0.02 0.02 0.01 0.01 0.01 0.01 0.02 0.02 0.02 0.02 0.02 0.03 0.04 0.05 0.06 0.06 0.06
0.02 0.02 0.02 0.01 0.02 0.02 0.02 0.02 0.01 0.01 0.01 0.01 0.01 0.01 0.01 0.01 0.01 0.01 0.02 0.02 0.03 0.04 0.04 0.03 0.03 0.03 0.03 0.02 0.02 0.01 0.01 0.01 0.01 0.02 0.02 0.02 0.02 0.02 0.03 0.03 0.04 0.05 0.06 0.06
0.01 0.01 0.01 0.01 0.01 0.01 0.01 0.01 0.01 0.01 0.01 0.01 0.01 0.01 0.01 0.02 0.02 0.02 0.02 0.03 0.04 0.05 0.05 0.04 0.04 0.04 0.03 0.03 0.02 0.02 0.02 0.01 0.01 0.02 0.02 0.02 0.03 0.03 0.03 0.03 0.03 0.04 0.04 0.04
0.02 0.01 0.01 0.01 0.01 0.01 0.01 0.01 0.01 0.01 0.01 0.01 0.01 0.01 0.02 0.02 0.02 0.02 0.02 0.03 0.03 0.04 0.05 0.05 0.06 0.05 0.04 0.03 0.03 0.02 0.02 0.02 0.02 0.02 0.02 0.02 0.03 0.03 0.03 0.03 0.03 0.03 0.03 0.03
0.02 0.01 0.01 0.01 0.01 0.01 0.01 0.01 0.01 0.01 0.01 0.01 0.01 0.01 0.02 0.02 0.02 0.02 0.02 0.02 0.02 0.03 0.04 0.05 0.06 0.05 0.04 0.04 0.03 0.03 0.02 0.02 0.02 0.02 0.02 0.02 0.02 0.03 0.03 0.03 0.03 0.03 0.03 0.03
0.01 0.01 0.01 0.01 0.01 0.01 0.01 0.01 0.01 0.01 0.01 0.01 0.01 0.01 0.01 0.01 0.01 0.01 0.02 0.02 0.02 0.03 0.05 0.05 0.05 0.05 0.05 0.04 0.03 0.03 0.02 0.02 0.02 0.02 0.02 0.02 0.02 0.02 0.03 0.03 0.03 0.03 0.03 0.03
0.01 0.01 0.01 0.01 0.01 0.01 0.01 0.01 0.01 0.01 0.01 0.01 0.01 0.01 0.01 0.01 0.01 0.01 0.01 0.02 0.02 0.03 0.04 0.05 0.05 0.06 0.06 0.05 0.03 0.03 0.02 0.02 0.02 0.03 0.03 0.02 0.02 0.02 0.02 0.02 0.03 0.03 0.03 0.03
0.01 0.01 0.01 0.01 0.01 0.01 0.01 0.01 0.01 0.01 0.01 0.00 0.00 0.01 0.01 0.01 0.01 0.01 0.01 0.01 0.02 0.02 0.02 0.04 0.05 0.06 0.07 0.05 0.03 0.03 0.02 0.02 0.03 0.03 0.03 0.02 0.02 0.02 0.02 0.02 0.02 0.02 0.03 0.04
0.01 0.00 0.01 0.01 0.01 0.01 0.01 0.01 0.01 0.01 0.00 0.00 0.00 0.00 0.00 0.01 0.00 0.00 0.01 0.01 0.01 0.02 0.02 0.03 0.04 0.05 0.06 0.05 0.03 0.03 0.03 0.03 0.03 0.03 0.02 0.02 0.02 0.02 0.02 0.02 0.01 0.01 0.02 0.02
0.01 0.01 0.01 0.01 0.01 0.01 0.01 0.01 0.01 0.00 0.00 0.00 0.00 0.00 0.00 0.00 0.00 0.00 0.01 0.01 0.01 0.02 0.03 0.03 0.04 0.04 0.04 0.04 0.03 0.02 0.03 0.03 0.03 0.03 0.02 0.02 0.02 0.02 0.02 0.02 0.02 0.02 0.02 0.03
0.00 0.00 0.01 0.01 0.01 0.01 0.01 0.01 0.00 0.00 0.00 0.00 0.00 0.00 0.00 0.00 0.01 0.01 0.01 0.01 0.01 0.01 0.02 0.02 0.03 0.04 0.04 0.03 0.03 0.03 0.03 0.03 0.02 0.02 0.02 0.02 0.02 0.02 0.03 0.03 0.03 0.03 0.03 0.04
0.00 0.00 0.00 0.01 0.01 0.01 0.00 0.00 0.00 0.00 0.00 0.00 0.00 0.00 0.00 0.01 0.01 0.01 0.01 0.01 0.01 0.01 0.01 0.02 0.03 0.03 0.04 0.04 0.04 0.03 0.03 0.02 0.02 0.02 0.02 0.02 0.02 0.02 0.02 0.03 0.03 0.03 0.03 0.03
0.00 0.00 0.00 0.00 0.00 0.00 0.00 0.00 0.00 0.00 0.00 0.00 0.00 0.01 0.01 0.01 0.01 0.01 0.01 0.01 0.01 0.01 0.01 0.02 0.02 0.02 0.03 0.04 0.04 0.03 0.03 0.03 0.02 0.02 0.02 0.02 0.02 0.02 0.02 0.02 0.02 0.02 0.02 0.03
0.00 0.00 0.00 0.00 0.00 0.00 0.00 0.00 0.00 0.00 0.00 0.00 0.01 0.01 0.01 0.01 0.01 0.01 0.01 0.01 0.01 0.01 0.01 0.01 0.01 0.02 0.03 0.03 0.03 0.03 0.03 0.02 0.02 0.02 0.02 0.02 0.02 0.02 0.02 0.02 0.02 0.02 0.02 0.02
0.00 0.00 0.00 0.00 0.00 0.00 0.00 0.00 0.00 0.00 0.00 0.00 0.01 0.01 0.01 0.01 0.01 0.01 0.01 0.01 0.01 0.01 0.01 0.01 0.01 0.02 0.03 0.03 0.03 0.02 0.02 0.02 0.02 0.02 0.01 0.01 0.02 0.02 0.02 0.02 0.02 0.02 0.02 0.02
0.00 0.00 0.00 0.00 0.00 0.00 0.00 0.00 0.00 0.00 0.00 0.00 0.00 0.00 0.01 0.01 0.01 0.01 0.01 0.01 0.01 0.01 0.01 0.01 0.02 0.02 0.03 0.03 0.02 0.02 0.02 0.02 0.02 0.02 0.01 0.01 0.01 0.01 0.02 0.02 0.02 0.01 0.01 0.01
0.00 0.00 0.00 0.00 0.00 0.00 0.00 0.00 0.00 0.00 0.00 0.00 0.00 0.01 0.00 0.00 0.00 0.00 0.01 0.01 0.01 0.01 0.01 0.02 0.02 0.02 0.02 0.02 0.02 0.01 0.01 0.01 0.01 0.01 0.01 0.01 0.01 0.01 0.01 0.01 0.01 0.01 0.01 0.01
0.00 0.00 0.00 0.00 0.00 0.00 0.01 0.01 0.00 0.00 0.00 0.00 0.00 0.01 0.01 0.00 0.01 0.01 0.01 0.01 0.01 0.01 0.01 0.02 0.02 0.02 0.02 0.01 0.01 0.01 0.01 0.01 0.01 0.01 0.01 0.01 0.01 0.01 0.01 0.01 0.01 0.01 0.01 0.01
0.00 0.00 0.00 0.00 0.00 0.01 0.01 0.01 0.01 0.00 0.00 0.00 0.00 0.00 0.00 0.01 0.01 0.01 0.01 0.01 0.01 0.01 0.01 0.01 0.01 0.01 0.01 0.01 0.01 0.01 0.01 0.01 0.01 0.01 0.01 0.01 0.01 0.01 0.01 0.01 0.01 0.01 0.01 0.01
0.00 0.00 0.00 0.00 0.01 0.01 0.01 0.01 0.01 0.01 0.01 0.01 0.01 0.01 0.00 0.00 0.01 0.01 0.01 0.01 0.01 0.01 0.01 0.01 0.01 0.01 0.01 0.01 0.01 0.01 0.01 0.01 0.01 0.01 0.01 0.01 0.01 0.01 0.01 0.01 0.01 0.01 0.01 0.01
MSLP
1025.52 1025.10 1024.67 1024.22 1023.73 1023.18 1022.58 1021.92 1021.23 1020.53 1019.87 1019.28 1018.81 1018.49 1018.34 1018.36 1018.53 1018.81 1019.16 1019.53 1019.87 1020.12 1020.26 1020.26 1020.10 1019.80 1019.36 1018.80 1018.12 1017.37 1016.54 1015.69 1014.81 1013.95 1013.14 1012.41 1011.79 1011.32 1011.03 1010.93 1011.03 1011.32 1011.79 1012.39
1026.80 1026.22 1025.55 1024.83 1024.04 1023.22 1022.37 1021.53 1020.73 1019.99 1019.35 1018.84 1018.48 1018.29 1018.27 1018.39 1018.63 1018.96 1019.34 1019.72 1020.07 1020.34 1020.52 1020.59 1020.54 1020.37 1020.08 1019.66 1019.14 1018.50 1017.76 1016.94 1016.05 1015.11 1014.16 1013.25 1012.41 1011.69 1011.13 1010.77 1010.61 1010.66 1010.93 1011.37
1027.86 1027.09 1026.19 1025.18 1024.12 1023.04 1021.99 1021.01 1020.13 1019.39 1018.82 1018.42 1018.20 1018.15 1018.25 1018.47 1018.78 1019.14 1019.53 1019.90 1020.23 1020.51 1020.71 1020.84 1020.88 1020.82 1020.68 1020.42 1020.04 1019.54 1018.91 1018.15 1017.28 1016.31 1015.27 1014.22 1013.19 1012.25 1011.45 1010.82 1010.39 1010.19 1010.22 1010.45
1028.47 1027.52 1026.39 1025.15 1023.86 1022.60 1021.41 1020.36 1019.48 1018.80 1018.33 1018.07 1018.00 1018.10 1018.32 1018.63 1019.00 1019.38 1019.75 1020.10 1020.41 1020.67 1020.89 1021.05 1021.16 1021.20 1021.17 1021.05 1020.81 1020.44 1019.92 1019.25 1018.42 1017.46 1016.38 1015.24 1014.08 1012.97 1011.96 1011.10 1010.42 1009.97 1009.74 1009.75
1028.42 1027.32 1026.03 1024.63 1023.21 1021.84 1020.61 1019.58 1018.76 1018.20 1017.88 1017.79 1017.89 1018.13 1018.46 1018.86 1019.26 1019.66 1020.02 1020.34 1020.62 1020.86 1021.07 1021.25 1021.40 1021.51 1021.57 1021.55 1021.42 1021.16 1020.75 1020.16 1019.40 1018.48 1017.41 1016.23 1015.01 1013.79 1012.63 1011.58 1010.70 1010.01 1009.55 1009.32
1027.60 1026.41 1025.04 1023.58 1022.12 1020.77 1019.60 1018.66 1017.98 1017.59 1017.45 1017.53 1017.79 1018.17 1018.62 1019.08 1019.52 1019.93 1020.28 1020.57 1020.83 1021.05 1021.25 1021.44 1021.61 1021.76 1021.87 1021.92 1021.87 1021.69 1021.36 1020.85 1020.17 1019.31 1018.29 1017.14 1015.91 1014.65 1013.41 1012.25 1011.22 1010.34 1009.68 1009.22
1025.99 1024.79 1023.44 1022.02 1020.64 1019.41 1018.38 1017.61 1017.13 1016.93 1016.98 1017.24 1017.66 1018.16 1018.70 1019.22 1019.70 1020.12 1020.47 1020.76 1021.00 1021.22 1021.41 1021.60 1021.78 1021.94 1022.07 1022.15 1022.13 1022.00 1021.73 1021.29 1020.69 1019.91 1018.98 1017.90 1016.73 1015.50 1014.26 1013.06 1011.94 1010.94 1010.11 1009.46
1023.70 1022.57 1021.32 1020.05 1018.85 1017.82 1017.01 1016.47 1016.21 1016.22 1016.46 1016.88 1017.43 1018.03 1018.65 1019.22 1019.74 1020.18 1020.55 1020.86 1021.11 1021.33 1021.53 1021.71 1021.89 1022.05 1022.17 1022.23 1022.22 1022.10 1021.86 1021.48 1020.95 1020.27 1019.45 1018.49 1017.43 1016.29 1015.11 1013.94 1012.80 1011.74 1010.80 1010.01
1020.90 1019.92 1018.86 1017.82 1016.87 1016.11 1015.56 1015.28 1015.25 1015.46 1015.87 1016.42 1017.07 1017.76 1018.43 1019.05 1019.61 1020.09 1020.49 1020.83 1021.11 1021.36 1021.57 1021.76 1021.93 1022.06 1022.15 1022.18 1022.14 1022.01 1021.78 1021.44 1020.98 1020.40 1019.70 1018.88 1017.97 1016.96 1015.90 1014.82 1013.73 1012.67 1011.68 1010.79
1017.83 1017.05 1016.25 1015.49 1014.84 1014.38 1014.12 1014.09 1014.28 1014.67 1015.22 1015.88 1016.60 1017.34 1018.06 1018.72 1019.31 1019.84 1020.29 1020.68 1021.01 1021.30 1021.54 1021.74 1021.89 1021.99 1022.04 1022.02 1021.93 1021.78 1021.54 1021.22 1020.82 1020.33 1019.75 1019.08 1018.33 1017.49 1016.58 1015.61 1014.61 1013.60 1012.62 1011.68
1014.72 1014.17 1013.65 1013.19 1012.87 1012.71 1012.74 1012.95 1013.35 1013.89 1014.55 1015.29 1016.06 1016.83 1017.57 1018.26 1018.90 1019.48 1019.99 1020.44 1020.83 1021.17 1021.44 1021.65 1021.79 1021.86 1021.85 1021.78 1021.64 1021.44 1021.18 1020.87 1020.52 1020.11 1019.64 1019.11 1018.51 1017.83 1017.08 1016.26 1015.38 1014.45 1013.51 1012.58
1011.74 1011.42 1011.18 1011.04 1011.03 1011.16 1011.46 1011.90 1012.46 1013.14 1013.88 1014.67 1015.47 1016.27 1017.03 1017.76 1018.44 1019.07 1019.65 1020.16 1020.62 1021.00 1021.30 1021.51 1021.64 1021.68 1021.63 1021.50 1021.30 1021.06 1020.78 1020.48 1020.15 1019.80 1019.43 1019.01 1018.54 1018.01 1017.40 1016.71 1015.95 1015.12 1014.25 1013.35
1008.98 1008.89 1008.91 1009.05 1009.33 1009.74 1010.27 1010.90 1011.63 1012.41 1013.23 1014.07 1014.90 1015.72 1016.51 1017.27 1017.99 1018.67 1019.31 1019.88 1020.39 1020.81 1021.13 1021.36 1021.47 1021.48 1021.39 1021.22 1020.98 1020.70 1020.41 1020.10 1019.79 1019.49 1019.17 1018.84 1018.46 1018.04 1017.54 1016.96 1016.30 1015.57 1014.78 1013.95
1006.49 1006.59 1006.83 1007.23 1007.76 1008.40 1009.14 1009.96 1010.82 1011.71 1012.60 1013.49 1014.36 1015.21 1016.03 1016.83 1017.59 1018.32 1019.00 1019.62 1020.16 1020.61 1020.95 1021.18 1021.28 1021.27 1021.15 1020.95 1020.69 1020.40 1020.09 1019.79 1019.50 1019.22 1018.94 1018.65 1018.33 1017.97 1017.54 1017.03 1016.46 1015.80 1015.10 1014.34
1004.27 1004.53 1004.96 1005.56 1006.30 1007.14 1008.06 1009.03 1010.02 1011.00 1011.98 1012.93 1013.85 1014.74 1015.60 1016.44 1017.25 1018.01 1018.73 1019.37 1019.93 1020.39 1020.74 1020.96 1021.06 1021.04 1020.91 1020.71 1020.45 1020.16 1019.87 1019.58 1019.30 1019.03 1018.78 1018.50 1018.21 1017.86 1017.46 1016.99 1016.46 1015.87 1015.24 1014.56
1002.35 1002.72 1003.30 1004.05 1004.95 1005.96 1007.02 1008.12 1009.22 1010.30 1011.35 1012.37 1013.35 1014.30 1015.21 1016.08 1016.92 1017.71 1018.44 1019.10 1019.66 1020.12 1020.46 1020.68 1020.77 1020.76 1020.65 1020.47 1020.24 1019.98 1019.72 1019.46 1019.20 1018.95 1018.70 1018.43 1018.12 1017.77 1017.37 1016.91 1016.40 1015.85 1015.27 1014.67
1000.76 1001.21 1001.89 1002.76 1003.77 1004.89 1006.06 1007.26 1008.44 1009.61 1010.74 1011.82 1012.86 1013.86 1014.82 1015.72 1016.58 1017.38 1018.11 1018.76 1019.31 1019.75 1020.08 1020.29 1020.39 1020.40 1020.32 1020.19 1020.02 1019.82 1019.61 1019.40 1019.18 1018.96 1018.71 1018.43 1018.11 1017.74 1017.32 1016.85 1016.34 1015.82 1015.28 1014.74
999.60 1000.10 1000.84 1001.77 1002.85 1004.02 1005.26 1006.51 1007.76 1008.98 1010.17 1011.31 1012.39 1013.43 1014.41 1015.34 1016.20 1016.99 1017.70 1018.33 1018.84 1019.26 1019.57 1019.78 1019.89 1019.93 1019.91 1019.84 1019.75 1019.63 1019.50 1019.36 1019.19 1019.01 1018.78 1018.50 1018.16 1017.78 1017.33 1016.85 1016.34 1015.83 1015.33 1014.85
998.98 999.51 1000.27 1001.21 1002.30 1003.48 1004.72 1005.99 1007.25 1008.50 1009.70 1010.87 1011.98 1013.03 1014.02 1014.93 1015.78 1016.54 1017.21 1017.78 1018.26 1018.64 1018.93 1019.14 1019.27 1019.35 1019.39 1019.40 1019.40 1019.38 1019.34 1019.28 1019.18 1019.05 1018.85 1018.59 1018.26 1017.87 1017.42 1016.93 1016.43 1015.94 1015.46 1015.02
998.98 999.51 1000.25 1001.16 1002.21 1003.35 1004.55 1005.78 1007.01 1008.23 1009.42 1010.57 1011.66 1012.69 1013.66 1014.54 1015.34 1016.05 1016.66 1017.18 1017.61 1017.94 1018.21 1018.41 1018.56 1018.69 1018.79 1018.88 1018.97 1019.04 1019.10 1019.12 1019.10 1019.03 1018.88 1018.65 1018.35 1017.97 1017.54 1017.07 1016.59 1016.12 1015.68 1015.28
999.61 1000.12 1000.81 1001.66 1002.62 1003.67 1004.78 1005.93 1007.09 1008.24 1009.37 1010.46 1011.51 1012.49 1013.40 1014.22 1014.95 1015.59 1016.13 1016.58 1016.94 1017.24 1017.47 1017.66 1017.83 1017.99 1018.15 1018.31 1018.47 1018.63 1018.77 1018.88 1018.93 1018.92 1018.83 1018.65 1018.39 1018.05 1017.66 1017.24 1016.80 1016.37 1015.96 1015.60
1000.79 1001.27 1001.90 1002.65 1003.51 1004.44 1005.43 1006.46 1007.50 1008.55 1009.59 1010.59 1011.55 1012.46 1013.28 1014.02 1014.67 1015.23 1015.69 1016.06 1016.36 1016.60 1016.81 1016.98 1017.16 1017.34 1017.53 1017.74 1017.97 1018.19 1018.39 1018.56 1018.68 1018.72 1018.69 1018.56 1018.36 1018.08 1017.74 1017.38 1017.00 1016.62 1016.27 1015.95
1002.37 1002.82 1003.37 1004.02 1004.74 1005.54 1006.39 1007.29 1008.20 1009.13 1010.05 1010.95 1011.81 1012.62 1013.35 1014.00 1014.55 1015.02 1015.40 1015.70 1015.94 1016.13 1016.30 1016.45 1016.62 1016.81 1017.02 1017.26 1017.52 1017.78 1018.02 1018.23 1018.38 1018.47 1018.48 1018.40 1018.26 1018.04 1017.78 1017.48 1017.17 1016.86 1016.56 1016.29
1004.14 1004.54 1005.02 1005.57 1006.18 1006.84 1007.56 1008.32 1009.10 1009.91 1010.71 1011.50 1012.25 1012.96 1013.59 1014.15 1014.62 1015.00 1015.30 1015.54 1015.72 1015.86 1016.00 1016.14 1016.29 1016.47 1016.69 1016.93 1017.20 1017.46 1017.72 1017.94 1018.11 1018.22 1018.25 1018.22 1018.12 1017.96 1017.76 1017.53 1017.30 1017.06 1016.82 1016.60
1005.89 1006.25 1006.66 1007.11 1007.62 1008.17 1008.77 1009.41 1010.08 1010.78 1011.47 1012.16 1012.82 1013.43 1013.98 1014.45 1014.85 1015.16 1015.40 1015.58 1015.72 1015.83 1015.94 1016.06 1016.20 1016.37 1016.57 1016.81 1017.06 1017.31 1017.55 1017.76 1017.93 1018.04 1018.09 1018.07 1018.00 1017.89 1017.74 1017.57 1017.40 1017.22 1017.05 1016.88
1007.44 1007.77 1008.12 1008.51 1008.94 1009.40 1009.91 1010.46 1011.04 1011.64 1012.26 1012.87 1013.45 1013.99 1014.46 1014.87 1015.21 1015.47 1015.67 1015.81 1015.92 1016.01 1016.10 1016.21 1016.34 1016.50 1016.70 1016.92 1017.15 1017.38 1017.59 1017.77 1017.91 1018.00 1018.04 1018.02 1017.97 1017.87 1017.76 1017.63 1017.50 1017.37 1017.25 1017.12
1008.71 1009.01 1009.33 1009.67 1010.04 1010.45 1010.89 1011.38 1011.90 1012.45 1013.00 1013.55 1014.08 1014.56 1014.99 1015.35 1015.65 1015.88 1016.05 1016.18 1016.28 1016.37 1016.46 1016.57 1016.70 1016.86 1017.05 1017.25 1017.46 1017.66 1017.84 1017.99 1018.09 1018.15 1018.16 1018.12 1018.06 1017.96 1017.86 1017.74 1017.64 1017.53 1017.44 1017.34
Thickness
5394 5398 5394 5392 5392 5389 5384 5384 5386 5396 5393 5403 5399 5394 5391 5388 5387 5385 5383 5382 5380 5378 5377 5376 5376 5378 5379 5379 5380 5381 5383 5384 5385 5385 5386 5388 5390 5392 5394 5396 5399 5401 5402 5404
5385 5391 5388 5388 5390 5386 5383 5381 5380 5383 5387 5391 5387 5382 5379 5377 5375 5374 5373 5372 5371 5370 5369 5369 5369 5369 5369 5369 5369 5370 5372 5373 5373 5373 5375 5376 5378 5381 5383 5385 5387 5389 5391 5393
5377 5376 5378 5382 5387 5382 5379 5374 5374 5380 5385 5380 5375 5373 5370 5367 5365 5363 5362 5362 5361 5360 5359 5360 5359 5359 5359 5359 5359 5359 5360 5361 5361 5362 5364 5365 5367 5369 5372 5374 5376 5378 5380 5382
5363 5364 5372 5395 5380 5375 5371 5366 5364 5369 5370 5367 5366 5363 5359 5356 5354 5353 5353 5353 5351 5350 5350 5350 5349 5349 5349 5348 5348 5348 5349 5349 5350 5351 5353 5354 5356 5358 5360 5362 5364 5367 5370 5372
5352 5352 5365 5380 5373 5361 5360 5365 5359 5357 5358 5356 5354 5352 5352 5349 5345 5343 5343 5342 5341 5340 5339 5339 5339 5339 5339 5339 5338 5339 5339 5340 5340 5341 5342 5343 5345 5347 5349 5352 5354 5356 5359 5361
5342 5347 5359 5378 5367 5357 5357 5358 5358 5349 5348 5345 5344 5345 5350 5344 5338 5335 5334 5333 5331 5330 5329 5328 5329 5329 5328 5329 5329 5329 5330 5330 5330 5331 5332 5333 5335 5337 5339 5341 5344 5346 5348 5350
5336 5337 5351 5359 5351 5351 5353 5360 5352 5342 5340 5336 5334 5337 5335 5331 5328 5326 5324 5323 5321 5319 5318 5318 5317 5318 5319 5320 5320 5320 5320 5320 5320 5321 5322 5324 5325 5327 5329 5331 5333 5334 5336 5338
5328 5331 5350 5349 5341 5344 5349 5344 5338 5333 5331 5328 5326 5324 5322 5319 5317 5315 5313 5312 5310 5308 5307 5307 5307 5307 5308 5309 5311 5310 5310 5310 5310 5311 5312 5314 5314 5316 5318 5319 5321 5323 5324 5326
5339 5351 5350 5337 5338 5336 5332 5330 5327 5323 5320 5318 5316 5314 5313 5309 5306 5304 5302 5301 5300 5298 5297 5297 5296 5296 5296 5298 5298 5299 5299 5299 5299 5300 5301 5302 5303 5305 5306 5307 5309 5311 5313 5315
5329 5338 5334 5328 5325 5322 5320 5318 5317 5313 5310 5307 5305 5304 5302 5299 5296 5294 5293 5291 5289 5288 5287 5287 5286 5286 5285 5286 5286 5286 5287 5287 5288 5289 5290 5291 5292 5294 5296 5297 5299 5300 5302 5304
5323 5328 5324 5323 5318 5316 5312 5309 5306 5302 5299 5297 5294 5293 5291 5289 5286 5284 5284 5281 5279 5277 5277 5276 5276 5275 5275 5275 5275 5275 5275 5276 5277 5278 5280 5281 5283 5284 5286 5289 5290 5292 5293 5294
5326 5322 5314 5317 5312 5306 5302 5299 5296 5292 5289 5286 5284 5282 5280 5278 5276 5274 5273 5271 5269 5268 5267 5267 5266 5265 5265 5265 5264 5264 5265 5266 5266 5267 5269 5271 5272 5274 5276 5279 5281 5283 5285 5286
5311 5308 5303 5302 5298 5295 5291 5289 5285 5282 5279 5277 5274 5272 5270 5268 5266 5264 5263 5261 5260 5259 5258 5257 5256 5256 5256 5255 5255 5254 5255 5255 5256 5257 5258 5259 5261 5263 5265 5267 5269 5272 5274 5276
5298 5294 5292 5291 5288 5284 5280 5278 5275 5272 5269 5267 5264 5262 5259 5257 5255 5254 5254 5253 5251 5250 5249 5248 5248 5248 5247 5247 5247 5246 5246 5246 5247 5247 5248 5249 5250 5252 5254 5256 5257 5259 5262 5265
5288 5285 5284 5280 5276 5273 5269 5266 5263 5261 5259 5256 5254 5251 5249 5247 5246 5245 5244 5243 5242 5241 5240 5240 5239 5239 5239 5239 5239 5238 5238 5238 5238 5238 5239 5240 5241 5242 5243 5244 5246 5247 5249 5251
5280 5276 5273 5269 5266 5263 5259 5256 5253 5252 5250 5247 5244 5242 5239 5237 5236 5235 5234 5233 5232 5232 5231 5231 5231 5231 5231 5231 5230 5230 5229 5230 5231 5231 5231 5231 5231 5231 5232 5232 5233 5234 5236 5238
5269 5267 5264 5261 5258 5254 5250 5248 5245 5243 5240 5238 5235 5232 5230 5227 5226 5225 5224 5223 5223 5223 5223 5223 5223 5223 5223 5222 5221 5221 5221 5221 5222 5221 5220 5220 5220 5220 5221 5221 5222 5223 5224 5225
5264 5262 5258 5254 5250 5246 5243 5240 5237 5234 5232 5230 5226 5223 5220 5219 5217 5216 5215 5214 5214 5214 5215 5215 5215 5215 5214 5214 5213 5212 5211 5210 5210 5210 5210 5210 5210 5210 5210 5211 5211 5212 5212 5213
5256 5253 5249 5246 5242 5238 5235 5232 5229 5226 5223 5220 5217 5214 5212 5210 5209 5207 5206 5205 5205 5206 5207 5207 5208 5207 5206 5205 5204 5203 5202 5201 5200 5199 5199 5200 5199 5199 5198 5198 5199 5199 5200 5201
5246 5244 5240 5236 5233 5229 5226 5223 5220 5217 5214 5212 5209 5206 5203 5202 5200 5199 5197 5196 5197 5198 5199 5199 5199 5198 5197 5196 5195 5193 5192 5191 5190 5189 5188 5188 5187 5187 5186 5187 5187 5187 5188 5188
5236 5233 5230 5226 5223 5220 5217 5214 5211 5208 5206 5203 5201 5198 5196 5194 5192 5190 5189 5190 5191 5190 5191 5192 5191 5189 5189 5188 5187 5185 5183 5181 5180 5179 5178 5177 5177 5176 5176 5176 5176 5176 5176 5176
5225 5223 5220 5216 5213 5210 5207 5205 5202 5200 5197 5195 5193 5191 5188 5186 5184 5183 5182 5182 5183 5184 5183 5182 5182 5181 5181 5180 5178 5176 5174 5172 5171 5170 5169 5168 5168 5167 5166 5166 5165 5165 5165 5165
5216 5213 5210 5207 5204 5201 5199 5196 5194 5192 5190 5187 5185 5183 5181 5179 5177 5176 5176 5176 5175 5176 5175 5174 5174 5174 5174 5171 5168 5166 5165 5163 5162 5161 5160 5159 5159 5158 5158 5157 5156 5156 5155 5155
5207 5204 5200 5197 5194 5192 5190 5189 5186 5184 5182 5180 5178 5176 5174 5172 5170 5169 5169 5169 5169 5168 5166 5166 5167 5166 5164 5161 5159 5157 5156 5155 5154 5153 5152 5152 5151 5150 5149 5148 5148 5147 5147 5146
5198 5194 5191 5188 5186 5186 5184 5181 5178 5176 5174 5172 5171 5169 5167 5165 5163 5163 5161 5160 5161 5160 5158 5157 5157 5157 5154 5152 5151 5149 5148 5147 5147 5146 5145 5144 5143 5142 5141 5140 5140 5139 5139 5138
5189 5186 5184 5182 5180 5178 5176 5174 5171 5169 5167 5164 5163 5161 5159 5157 5156 5154 5153 5152 5151 5151 5149 5148 5147 5147 5145 5144 5143 5142 5141 5140 5139 5138 5138 5137 5136 5135 5134 5133 5133 5132 5132 5132
5181 5178 5176 5174 5172 5171 5169 5167 5164 5162 5160 5157 5155 5153 5151 5150 5148 5146 5145 5143 5142 5141 5140 5139 5139 5138 5137 5136 5135 5135 5134 5133 5133 5132 5131 5131 5130 5129 5128 5128 5127 5127 5127 5127